Regional Weather Roundup
Issued by NWS Huntsville, AL

Home | Current Version | Previous Version | Text Only | Print | Product List | Glossary On
Versions: 1 2 3 4 5 6 7 8 9 10 11 12 13 14 15 16 17 18 19 20 21 22 23 24 25 26 27 28 29 30 31 32 33 34 35 36 37 38 39 40 41 42 43 44 45 46 47 48 49 50
000
ASUS44 KHUN 250410
RWRHUN

WEATHER ROUNDUP FOR THE TENNESSEE VALLEY
NATIONAL WEATHER SERVICE HUNTSVILLE AL
1100 PM CDT MON JUL 24 2017

ALZ001>004-250500-
NORTHWEST ALABAMA

CITY           SKY/WX    TMP DP  RH WIND       PRES   REMARKS
COURTLAND HCN    N/A     73 N/A N/A CALM        N/A
RUSSELLVILLE     N/A     70 N/A N/A MISG        N/A
SHOALS AIRPORT PTCLDY    73  70  90 CALM      30.03F
SHOALS TVA RES   N/A     73 N/A N/A MISG        N/A
$$

ALZ005>007-016-250500-
NORTH CENTRAL ALABAMA

CITY           SKY/WX    TMP DP  RH WIND       PRES   REMARKS
DECATUR AP     CLOUDY    74  74 100 E3        30.04R
HUNTSVILLE AP  CLOUDY    76  75  97 SE3       30.03S
MERIDIANVILLE  MOCLDY    73  70  88 CALM      30.04S
REDSTONE ARSN  MOCLDY    73  72  95 CALM      30.02S
VINEMONT AP    FAIR      73  72  97 CALM      30.07S
$$

ALZ008>010-250500-
NORTHEAST ALABAMA

CITY           SKY/WX    TMP DP  RH WIND       PRES   REMARKS
ALBERTVILLE    CLOUDY    73  73 100 CALM      30.04S
FORT PAYNE     CLOUDY    72  70  94 CALM      30.04S
SCOTTSBORO HCN   N/A     75 N/A N/A MISG        N/A
VALLEY HEAD      N/A     72 N/A N/A MISG        N/A
$$

TNZ076-096-097-250500-
SOUTHEASTERN MIDDLE TENNESSEE

CITY           SKY/WX    TMP DP  RH WIND       PRES   REMARKS
TULLAHOMA      CLEAR     75  70  83 SW3       30.06S
WINCHESTER     CLEAR     73  72  94 CALM      30.05S
$$

...SURROUNDING SITES...

CITY           SKY/WX    TMP DP  RH WIND       PRES   REMARKS
ATLANTA        MOCLDY    75  71  87 W5        30.05S
ANNISTON       CLOUDY    76  71  85 CALM      30.04S
BIRMINGHAM     CLOUDY    76  73  91 CALM      30.06R
CHATTANOOGA    MOCLDY    80  76  87 S3        30.03R
CORINTH        FAIR      75  70  83 CALM      30.00S
DALTON         NOT AVBL
GADSDEN        CLOUDY    73  73 100 CALM      30.05R
GOLDEN TRNGL   CLOUDY    75  66  73 S10       29.97S
JACKSON TN     CLEAR     79  76  90 S6        29.99S
MEMPHIS        PTCLDY    81  76  84 SW9       29.98F
NASHVILLE      PTCLDY    83  73  72 N6        30.01S
OXFORD MS      FAIR      75  70  83 W3        30.02R
ROME           CLOUDY    77  74  90 SW3       30.03R
SAVANNAH       CLEAR     72  72 100 SE5       30.00S
SELMER         CLEAR     72  70  94 CALM      30.00F
TUPELO         CLOUDY    78  71  79 S6        29.99F
TUSCALOOSA     NOT AVBL
$$

...GULF COAST WEATHER...

CITY           SKY/WX    TMP DP  RH WIND       PRES   REMARKS
GULFPORT       CLEAR     75  74  96 CALM      30.06R
PASCAGOULA     CLEAR     74  71  91 CALM      30.07R
MOBILE         PTCLDY    74  72  93 S3        30.07S
GULF SHORES    MOCLDY    76  76 100 CALM      30.06S
PENSACOLA      LGT RAIN  77  73  87 W3        30.06R
DESTIN         CLEAR     84  72  67 VRB3      30.05R
PANAMA CITY    PTCLDY    82  75  79 W8        30.06R
APPALACHICOLA  PTCLDY    82  78  88 W5        30.06R HX  91
$$




USA.gov is the U.S. government's official web portal to all federal, state and local government web resources and services.